Regional Weather Roundup
Issued by NWS Jackson, KY

Home | Current Version | Previous Version | Text Only | Print | Product List | Glossary On
Versions: 1 2 3 4 5 6 7 8 9 10 11 12 13 14 15 16 17 18 19 20 21 22 23 24 25 26 27
000
ASUS43 KJKL 221010
RWRJKL

EAST KENTUCKY HOURLY WEATHER ROUNDUP
NATIONAL WEATHER SERVICE JACKSON KY
600 AM EDT SUN OCT 22 2017

NOTE: "FAIR" INDICATES FEW OR NO CLOUDS BELOW 12,000 FEET WITH
NO SIGNIFICANT WEATHER AND/OR OBSTRUCTIONS TO VISIBILITY.

* THESE REPORTS ARE NOT UNDER NWS QUALITY CONTROL AND MAY NOT
  REPORT WEATHER SUCH AS PRECIPITATION AND FOG.

KYZ079-080-083-085-087-088-110-112-115-119-120-221100
...EASTERN KENTUCKY...

CITY           SKY/WX    TMP DP  RH WIND       PRES   REMARKS
JACKSON        CLEAR     58  46  64 CALM      30.26R
LONDON         CLEAR     46  44  93 CALM      30.24S
SOMERSET*      PTCLDY    50  50 100 CALM      30.23F
MONTICELLO*    CLEAR     60  50  69 SE9       30.22F
WILLIAMSBURG*  SUNNY     54  50  87 CALM      30.24S
MIDDLESBORO*   CLEAR     45  45 100 CALM      30.28S
HARLAN APT*    MOSUNNY   52  46  82 CALM      30.27S
PIKE CO APT*     N/A     60  46  60 SE6       30.27R
BIG SANDY APT* MOSUNNY   55  49  81 E5        30.26S
MOREHEAD APT*  MOSUNNY   54  48  82 SE5       30.25F
$$

KYZ035-036-041-042-044-050-067-078-099-221100
...CENTRAL KENTUCKY...

CITY           SKY/WX    TMP DP  RH WIND       PRES   REMARKS
MT STERLING*   PTCLDY    52  48  87 S3        30.25S
FLEMING/MASON* CLEAR     55  49  81 SE6       30.24S
DANVILLE*      CLOUDY    52  46  82 CALM      30.21F
LEXINGTON      PTCLDY    59  47  64 SE12      30.20F
FRANKFORT      CLEAR     56  47  71 SE8       30.17F
LOUISVILLE     PTCLDY    58  50  75 SE6       30.14S
LEBANON*         N/A     61  46  59 S12       30.17F
GLASGOW*       MOCLDY    60  49  67 SE7       30.14F
BOWLING GREEN  PTCLDY    57  53  86 E3        30.13F
$$

KYZ091>093-OHZ055-061-077-WVZ005-015-034-035-042-221100
...SOUTHERN OHIO/WEST VIRGINIA...

CITY           SKY/WX    TMP DP  RH WIND       PRES   REMARKS
COVINGTON      CLEAR     57  50  77 S7        30.17S
COLUMBUS       CLOUDY    57  51  80 SE3       30.22R
DAYTON         CLOUDY    52  49  89 SE7       30.18F
WILMINGTON     PTCLDY    57  50  77 S8        30.20S
HUNTINGTON     PTCLDY    50  49  96 E6        30.25R
CHARLESTON     PTCLDY    49  47  93 CALM      30.28R
PINEVILLE*     CLEAR     45  44  93 MISG      30.35S
BECKLEY        CLEAR     55  47  74 SE5       30.33R
BLUEFIELD      CLEAR     58  45  62 SE9       30.34R
LOGAN CO APT*    N/A     59  48  67 CALM      30.28S
$$

VAZ002-007-008-TNZ017-027-036-066-071-221100
...SOUTHWEST VIRGINIA/EAST TENNESSEE...

CITY           SKY/WX    TMP DP  RH WIND       PRES   REMARKS
WISE*          PTCLDY    59  46  63 S6        30.32R
JONESVILLE*      N/A     45  45 100 CALM      30.30S
ABINGDON*      CLEAR     53  47  82 E5        30.32R
BRISTOL        PTCLDY    46  46 100 CALM      30.29S
MORRISTOWN*    SUNNY     50  45  81 CALM      30.26S
SEVIERVILLE*   SUNNY     45  45 100 CALM      30.25F
KNOXVILLE      PTCLDY    50  50 100 E3        30.24S
LAFOLLETTE*    SUNNY     46  46 100 CALM      30.28S
OAK RIDGE      LGT RAIN  49  49 100 VRB3      30.26S VSB 1/4
CROSSVILLE     CLOUDY    60  48  64 VRB7      30.23S
NASHVILLE      MOCLDY    64  52  64 SE10      30.13F
$$

...KEY TO REMARKS...
VSB - VISIBILITY IN MILES
WCI - WIND CHILL INDEX
HX  - HEAT INDEX

$$




USA.gov is the U.S. government's official web portal to all federal, state and local government web resources and services.